Find Starlink 1154

NORAD ID: 45198 Int'l Des: 2020-012 Owner: SPXS Country: US Constellation: starlink operational
LEOCIRCULAR

当前视图

正在加载3D地球...

About Starlink 1154

Starlink 1154 (NORAD 45198) is a starlink constellation satellite (v1.0) launched Feb 17, 2020 by SPXS of US. It operates in LEO, CIRCULAR orbit with a mass of 260.00 kg.

关于 Starlink 1154

正在加载描述...

即将过境

Passes for default location (London). Set your location on the main map for personalized predictions.

高度历史

Loading altitude history...

两行轨道根数

1 45198U 20012W 26171.43671766 .00034576 00000-0 35315-3 0 9994
2 45198 53.0404 232.9626 0003618 20.2980 339.8178 15.64741655351286
Epoch: Jun 20, 2026 • Age: 47 hours

当前状态

高度 393.2 km
速度 7.67 km/s
星下点 -53.19°S, 77.67°E
发射日期 Feb 17, 2020
运行时间 6.3 years
类型 internet

技术详情

分类 Payload
质量 260.00 kg
干质量 248.00 kg
总质量 260.00 kg
长度 0.20 m
直径 2.80 m
跨度 9.00 m
形状 Box + pan
制造商 SPXS
平台类型 Starlink
阶段状态 In Orbit
所有者/国家 SPXS/US

Most Searched